Weather in Zhuravno

Ukraine / Lviv District     49°15′38″N   24°16′35″E
temp.,
°C
wind,
m/s
gust,
m/s
humid.,
%
clouds,
%
prec.,
mm/h
press.,
hPa
HPBL,
m
21 january, fri
fri2123:00−3w815745 0.0 1012965
02:00−3wnw81677100 0.1 10131217
05:00−4w8147756 0.1 1013977
08:00−4w8157570 0.1 10151099
11:00−3w9147581 0.0 10161205
14:00−3wnw9148198 0.1 10151197
17:00−3wnw8138299 0.1 10141095
20:00−3wnw81481100 0.2 1015992
22 january, sat
sat2223:00−4w71491100 0.1 1015951
02:00−4wnw61294100 0.6 1015878
05:00−4wnw71292100 0.8 1015854
08:00−6wnw6128985 0.8 1015598
11:00−4wnw71285100 0.1 10161018
14:00−3wnw71393100 1.4 10161088
17:00−4nw51187100 0.5 1019469
20:00−5nw51193100 0.6 1022651
23 january, sun
sun2323:00−4nw61290100 0.1 1023874
02:00−5wnw71391100 0.3 1023883
05:00−4nw71295100 0.9 10231151
08:00−5nnw51192100 1.5 1025686
11:00−4nnw5988100 0.3 10271003
14:00−4n5779100 0.5 10281032
17:00−7n259194 0.1 1030112
20:00−10wnw229799 0.1 103239
24 january, mon
mon2423:00−9nnw2596100 0.2 1034149
02:00−11nw119872 0.3 103513
05:00−12wnw119994 0.1 103612
08:00−13wnw119996 0.1 103813
11:00−10wnw229193 0.0 1038222
14:00−7nw228349 0.0 1036337
17:00−10wnw11945 0.0 103710
20:00−13sw119757 0.0 103710
25 january, tue
tue2523:00−14sw119849 0.0 103711
02:00−15sw119691 0.0 103610
05:00−14wsw1193100 0.0 103410
08:00−15s1192100 0.0 103312
11:00−7w1370100 0.1 1031146
14:00−2wsw3694100 0.6 1028319
17:00−2w41297100 0.9 1026507
20:00−2w61497100 1.7 1026667